Wind_Speed
68 70 71 73 72 72 72 74 73 75 76 78 81 82 82 79 79 78 81 83 83 85 86 85 83 81 80 79 77 77 75 77
69 69 71 70 69 69 71 72 73 73 75 76 78 78 77 76 75 76 78 81 85 86 89 90 89 86 84 82 84 85 84 82
67 67 66 65 65 66 67 69 71 72 74 76 76 76 76 76 76 75 76 77 80 82 88 91 90 91 89 90 90 89 90 88
66 65 63 63 65 67 67 67 68 70 72 73 74 75 74 75 75 75 74 75 76 78 81 83 89 93 92 93 92 93 94 90
66 62 60 61 61 62 65 66 66 67 69 70 71 72 73 73 74 75 74 75 76 78 78 80 81 83 89 91 94 94 97 96
66 63 62 61 62 63 63 63 65 68 70 69 68 68 69 71 72 73 74 75 75 77 78 79 79 80 82 84 91 97 97 97
66 65 64 63 62 62 65 66 64 66 67 68 68 70 71 71 72 74 75 75 75 75 76 77 77 78 80 83 86 90 96 97
65 63 58 58 54 56 56 55 59 63 65 68 69 67 69 72 74 76 77 78 76 75 76 77 78 79 80 82 84 86 88 88
62 55 53 52 46 44 48 52 51 52 55 57 57 59 63 67 71 74 76 78 78 78 79 78 77 79 81 81 82 83 84 86
57 55 50 43 40 38 36 40 45 45 45 45 47 50 53 56 60 63 66 67 69 72 75 78 81 82 81 79 79 81 84 85
52 48 42 35 35 38 35 29 28 28 30 33 34 35 38 39 42 47 52 56 58 63 65 68 71 75 79 81 81 80 80 82
42 38 34 28 28 27 22 18 16 17 21 25 26 30 33 34 36 39 43 45 48 52 55 57 60 66 69 73 76 79 81 81
26 22 19 17 18 21 23 26 29 31 32 35 35 36 37 38 39 41 42 42 43 44 46 50 53 57 57 61 67 68 73 76
22 22 21 23 25 27 31 34 37 39 40 41 42 43 42 42 43 43 44 46 47 48 48 48 49 51 49 54 55 59 61 70
25 23 25 27 31 32 35 39 44 45 46 44 43 41 42 44 46 49 51 53 53 53 52 52 54 54 51 49 47 48 57 59
25 24 26 28 31 34 37 42 47 49 47 46 47 49 51 54 58 60 60 62 62 62 63 62 60 57 57 53 51 51 51 50
27 27 29 32 34 38 40 46 51 50 51 51 53 56 61 64 66 68 69 70 71 70 70 69 70 67 62 57 58 55 55 52
29 31 32 35 38 40 45 50 55 56 54 55 59 64 69 73 76 79 78 77 75 74 75 76 76 74 72 67 61 60 59 56
30 32 35 39 43 47 50 55 57 61 60 61 67 72 77 83 80 80 79 78 76 73 73 75 77 77 76 74 71 65 61 61
32 35 38 44 48 52 56 60 63 68 67 70 75 80 85 80 80 77 74 72 71 71 70 73 76 78 77 75 75 73 69 64
Wind_Direction
295 290 286 284 282 277 273 271 269 266 264 263 263 262 260 258 254 252 250 248 249 249 248 248 248 247 245 243 242 241 241 243
293 290 288 285 280 275 274 273 271 268 265 263 263 263 263 260 256 254 252 250 248 247 247 248 248 247 246 244 244 242 242 242
295 292 287 285 282 279 277 274 272 269 267 266 264 262 261 262 261 258 255 252 249 249 248 248 249 247 246 246 245 244 244 244
297 293 287 283 280 278 276 274 273 272 270 268 267 265 264 264 262 260 257 255 253 251 250 249 248 248 248 245 245 244 244 243
298 295 289 282 277 276 277 276 274 272 271 270 269 268 267 266 264 262 260 257 255 253 252 250 249 249 248 246 243 244 243 243
303 298 292 286 278 273 271 270 271 271 272 272 270 269 268 268 266 264 262 260 257 256 253 251 249 249 247 247 246 243 243 244
303 300 298 293 287 281 272 268 267 267 267 268 268 268 266 266 265 264 263 261 259 256 255 254 251 249 248 247 245 245 245 245
305 301 299 299 296 288 284 278 271 267 267 268 269 269 267 265 264 262 262 261 261 260 258 256 254 252 250 248 247 247 247 247
306 304 299 297 303 298 290 287 283 276 271 273 274 271 266 263 263 262 262 262 261 261 260 258 256 254 253 251 249 248 248 249
306 303 300 295 299 303 300 292 287 287 285 280 277 276 275 271 265 264 263 261 259 260 260 258 256 255 254 253 251 249 247 247
309 309 308 299 305 303 300 299 295 290 288 286 287 287 281 278 276 273 269 267 264 262 259 258 256 254 253 253 251 249 247 246
317 318 317 314 311 311 308 307 305 308 306 301 301 295 290 287 283 279 275 272 268 264 261 260 257 254 253 252 252 251 249 247
334 342 344 342 334 332 330 330 328 322 315 307 300 294 288 283 281 280 277 274 273 271 267 262 259 256 254 251 250 251 249 247
336 341 345 341 339 337 334 331 326 319 312 307 302 298 294 292 290 286 282 278 273 269 267 265 264 260 254 252 250 248 245 244
326 331 332 334 334 332 330 328 324 319 313 307 300 296 293 290 288 286 284 282 280 275 269 264 260 258 258 254 250 249 245 245
316 321 322 324 327 326 327 328 327 320 313 307 303 299 297 295 292 288 284 280 276 271 269 267 262 259 254 252 250 248 247 245
302 311 318 321 325 324 325 330 327 320 313 308 303 300 298 295 292 287 283 280 277 273 268 263 262 259 253 249 247 245 246 244
306 317 317 320 320 322 328 328 327 323 313 308 305 301 298 295 293 289 285 281 276 270 266 263 260 256 253 249 245 244 240 243
309 313 315 318 320 324 326 324 322 321 314 311 307 303 300 298 293 289 285 281 276 270 265 261 258 255 251 245 245 242 241 239
309 312 314 319 322 323 324 322 322 322 316 312 309 305 302 298 293 288 282 277 273 270 264 258 255 252 249 245 239 238 238 238
Height
10696 10690 10686 10682 10679 10675 10673 10672 10672 10670 10671 10670 10669 10670 10672 10674 10677 10681 10684 10687 10689 10692 10695 10698 10703 10707 10710 10714 10717 10721 10725 10730
10680 10673 10667 10663 10659 10656 10653 10652 10652 10652 10650 10650 10650 10650 10650 10652 10655 10661 10665 10668 10670 10672 10676 10679 10683 10688 10692 10695 10699 10703 10708 10714
10661 10655 10649 10644 10639 10636 10634 10632 10631 10631 10630 10630 10630 10630 10630 10632 10635 10640 10644 10647 10650 10653 10657 10659 10662 10667 10673 10676 10680 10684 10689 10696
10644 10637 10630 10625 10620 10616 10614 10614 10613 10611 10610 10610 10611 10611 10612 10613 10616 10619 10622 10626 10629 10633 10637 10639 10642 10646 10650 10657 10661 10665 10669 10677
10624 10619 10613 10607 10602 10599 10595 10593 10592 10592 10590 10591 10591 10592 10593 10594 10595 10597 10601 10604 10608 10611 10615 10618 10622 10626 10630 10634 10640 10644 10649 10656
10604 10598 10591 10587 10584 10581 10578 10577 10575 10573 10571 10572 10573 10573 10574 10574 10575 10577 10578 10581 10585 10588 10592 10596 10601 10605 10609 10613 10617 10621 10627 10635
10584 10578 10571 10564 10563 10561 10559 10557 10558 10556 10555 10554 10555 10555 10556 10556 10557 10557 10557 10560 10563 10567 10571 10575 10580 10584 10588 10592 10594 10598 10604 10614
10569 10561 10555 10548 10545 10541 10539 10538 10538 10538 10537 10536 10537 10538 10537 10537 10537 10536 10537 10539 10542 10546 10550 10553 10557 10561 10565 10569 10574 10580 10585 10593
10554 10549 10543 10537 10533 10527 10522 10520 10518 10519 10520 10520 10518 10517 10515 10514 10514 10514 10516 10520 10521 10524 10526 10531 10534 10537 10541 10547 10554 10560 10564 10569
10543 10536 10530 10526 10523 10517 10511 10507 10504 10504 10503 10502 10501 10500 10499 10497 10496 10496 10497 10499 10500 10502 10504 10507 10511 10515 10520 10526 10532 10537 10542 10546
10530 10522 10517 10513 10511 10507 10503 10498 10495 10494 10493 10491 10490 10488 10487 10484 10482 10480 10480 10480 10483 10484 10485 10487 10491 10494 10498 10503 10509 10514 10520 10526
10521 10514 10508 10503 10502 10500 10496 10493 10491 10488 10488 10486 10482 10481 10478 10475 10472 10469 10468 10468 10467 10467 10467 10469 10471 10474 10479 10482 10487 10491 10497 10504
10515 10509 10504 10501 10499 10496 10492 10488 10484 10481 10479 10476 10474 10471 10468 10465 10462 10460 10458 10457 10455 10454 10453 10453 10453 10454 10461 10462 10464 10473 10476 10481
10514 10509 10504 10499 10494 10490 10485 10481 10477 10474 10470 10466 10461 10457 10454 10450 10448 10446 10444 10443 10442 10440 10439 10439 10438 10439 10442 10444 10449 10452 10455 10454
10511 10506 10501 10496 10491 10486 10481 10476 10471 10465 10460 10455 10451 10447 10444 10440 10436 10433 10429 10426 10425 10423 10422 10423 10423 10424 10427 10429 10432 10434 10435 10443
10508 10504 10499 10494 10488 10482 10477 10471 10464 10458 10452 10445 10439 10434 10429 10424 10419 10415 10412 10408 10407 10405 10403 10403 10404 10407 10409 10414 10418 10418 10421 10427
10505 10501 10494 10488 10482 10476 10469 10461 10455 10448 10440 10433 10425 10418 10411 10405 10400 10395 10390 10386 10383 10382 10380 10382 10382 10385 10391 10397 10400 10405 10407 10412
10499 10493 10488 10481 10475 10468 10459 10451 10443 10435 10427 10419 10411 10402 10392 10383 10375 10366 10361 10357 10355 10354 10353 10354 10356 10361 10367 10376 10382 10387 10392 10397
10492 10487 10480 10473 10465 10457 10448 10440 10432 10424 10413 10403 10392 10381 10369 10358 10347 10337 10331 10326 10324 10324 10325 10326 10328 10332 10340 10350 10360 10368 10375 10381
10485 10479 10472 10464 10455 10446 10437 10428 10418 10408 10397 10384 10371 10357 10343 10328 10317 10306 10299 10295 10292 10291 10293 10296 10300 10305 10311 10323 10336 10346 10355 10363